• In Romania
  • List of Countries
  • For 7 days
  • Water Temperature
  • Satellite Maps
  • Weather Map
  • Weather Widgets
  • user-avatar
    Login

    Hourly Weather Karlovac

    Today, 20 October, Friday

    Time Temperature Precipitation Wind Pressure Humidity
    00:00 +12°C° 0 mm 1 mps 742 mmHg 72%
    01:00 +13°C° 0 mm 1 mps 742 mmHg 68%
    02:00 +12°C° 0 mm 1 mps 742 mmHg 70%
    03:00 +12°C° 0 mm 1 mps 742 mmHg 71%
    04:00 +12°C° 0 mm 1 mps 742 mmHg 73%
    05:00 +12°C° 0 mm 1 mps 742 mmHg 74%
    06:00 +12°C° 0 mm 1 mps 742 mmHg 75%
    07:00 +12°C° 0 mm 1 mps 742 mmHg 76%
    08:00 +14°C° 0 mm 1 mps 743 mmHg 69%
    09:00 +18°C° 0 mm 1 mps 743 mmHg 62%
    10:00 +20°C° 0 mm 2 mps 743 mmHg 55%
    11:00 +20°C° 0 mm 2 mps 743 mmHg 53%
    12:00 +21°C° 0 mm 2 mps 743 mmHg 50%
    13:00 +22°C° 0 mm 3 mps 743 mmHg 48%
    14:00 +21°C° 0 mm 2 mps 743 mmHg 53%
    15:00 +20°C° 0 mm 2 mps 742 mmHg 58%
    16:00 +19°C° 0 mm 2 mps 742 mmHg 63%
    17:00 +18°C° 0 mm 2 mps 742 mmHg 71%
    18:00 +16°C° 0 mm 2 mps 743 mmHg 78%
    19:00 +14°C° 0 mm 1 mps 743 mmHg 86%
    20:00 +13°C° 0 mm 1 mps 743 mmHg 88%
    21:00 +13°C° 0 mm 1 mps 743 mmHg 89%
    22:00 +13°C° 0 mm 1 mps 744 mmHg 91%
    23:00 +12°C° 0 mm 1 mps 744 mmHg 91%

    Tomorrow, 21 October, Saturday

    Time Temperature Precipitation Wind Pressure Humidity
    00:00 +12°C° 0 mm 1 mps 744 mmHg 92%
    01:00 +12°C° 0 mm 1 mps 744 mmHg 92%
    02:00 +12°C° 0 mm 1 mps 744 mmHg 92%
    03:00 +12°C° 0 mm 1 mps 744 mmHg 92%
    04:00 +11°C° 0 mm 1 mps 743 mmHg 91%
    05:00 +12°C° 0 mm 1 mps 744 mmHg 91%
    06:00 +12°C° 0 mm 1 mps 744 mmHg 90%
    07:00 +12°C° 0 mm 1 mps 744 mmHg 89%
    08:00 +14°C° 0 mm 1 mps 744 mmHg 80%
    09:00 +18°C° 0 mm 1 mps 744 mmHg 70%
    10:00 +20°C° 0 mm 1 mps 744 mmHg 60%
    11:00 +21°C° 0 mm 1 mps 744 mmHg 58%
    12:00 +22°C° 0 mm 1 mps 744 mmHg 55%
    13:00 +23°C° 0 mm 2 mps 743 mmHg 52%
    14:00 +22°C° 0 mm 1 mps 743 mmHg 57%
    15:00 +21°C° 0 mm 1 mps 743 mmHg 63%
    16:00 +21°C° 0 mm 1 mps 742 mmHg 68%
    17:00 +19°C° 0 mm 1 mps 742 mmHg 74%
    18:00 +16°C° 0 mm 1 mps 743 mmHg 81%
    19:00 +15°C° 0 mm 1 mps 743 mmHg 87%
    20:00 +14°C° 0 mm 1 mps 742 mmHg 89%
    21:00 +14°C° 0 mm 1 mps 742 mmHg 91%
    22:00 +14°C° 0 mm 1 mps 742 mmHg 93%
    23:00 +13°C° 0 mm 1 mps 742 mmHg 93%

    Day after tomorrow, 22 October, Sunday

    Time Temperature Precipitation Wind Pressure Humidity
    00:00 +13°C° 0 mm 1 mps 742 mmHg 94%
    01:00 +13°C° 0 mm 1 mps 742 mmHg 95%
    02:00 +13°C° 0 mm 1 mps 741 mmHg 95%
    03:00 +13°C° 0 mm 1 mps 741 mmHg 95%
    04:00 +13°C° 0 mm 1 mps 740 mmHg 95%
    05:00 +13°C° 0 mm 1 mps 740 mmHg 95%
    06:00 +13°C° 0 mm 1 mps 740 mmHg 94%
    07:00 +13°C° 0 mm 1 mps 740 mmHg 94%
    08:00 +15°C° 0.2 mm 1 mps 740 mmHg 88%
    09:00 +18°C° 0.2 mm 1 mps 740 mmHg 82%
    10:00 +19°C° 0.2 mm 1 mps 740 mmHg 76%
    11:00 +19°C° 0.9 mm 1 mps 739 mmHg 79%
    12:00 +18°C° 0.9 mm 2 mps 739 mmHg 83%
    13:00 +17°C° 0.9 mm 2 mps 738 mmHg 86%
    14:00 +17°C° 1.5 mm 2 mps 738 mmHg 88%
    15:00 +16°C° 1.5 mm 2 mps 737 mmHg 90%
    16:00 +16°C° 1.5 mm 2 mps 737 mmHg 92%
    17:00 +15°C° 1.7 mm 2 mps 737 mmHg 92%
    18:00 +14°C° 1.7 mm 2 mps 738 mmHg 93%
    19:00 +12°C° 1.7 mm 2 mps 738 mmHg 93%
    20:00 +12°C° 0.3 mm 2 mps 738 mmHg 93%
    21:00 +10°C° 0.3 mm 2 mps 738 mmHg 93%
    22:00 +10°C° 0.3 mm 2 mps 738 mmHg 93%
    23:00 +10°C° 0.4 mm 2 mps 738 mmHg 93%

    23 October, Monday

    Time Temperature Precipitation Wind Pressure Humidity
    00:00 +10°C° 0.4 mm 3 mps 738 mmHg 93%
    01:00 +9°C° 0.4 mm 3 mps 738 mmHg 92%
    02:00 +9°C° 0.9 mm 3 mps 738 mmHg 92%
    03:00 +9°C° 0.9 mm 3 mps 738 mmHg 92%
    04:00 +9°C° 0.9 mm 3 mps 738 mmHg 93%
    05:00 +8°C° 0.6 mm 3 mps 738 mmHg 93%
    06:00 +8°C° 0.6 mm 2 mps 738 mmHg 92%
    07:00 +8°C° 0.6 mm 2 mps 738 mmHg 92%
    08:00 +9°C° 0.1 mm 2 mps 739 mmHg 89%
    09:00 +9°C° 0.1 mm 2 mps 739 mmHg 86%
    10:00 +10°C° 0.1 mm 2 mps 739 mmHg 83%
    11:00 +12°C° 0 mm 2 mps 739 mmHg 77%
    12:00 +12°C° 0 mm 2 mps 739 mmHg 71%
    13:00 +13°C° 0 mm 2 mps 739 mmHg 65%
    14:00 +13°C° 0 mm 2 mps 739 mmHg 67%
    15:00 +13°C° 0 mm 1 mps 739 mmHg 69%
    16:00 +13°C° 0 mm 1 mps 739 mmHg 71%
    17:00 +12°C° 0 mm 1 mps 740 mmHg 75%
    18:00 +10°C° 0 mm 1 mps 740 mmHg 79%
    19:00 +9°C° 0 mm 1 mps 740 mmHg 83%
    20:00 +9°C° 0 mm 1 mps 740 mmHg 82%
    21:00 +9°C° 0 mm 1 mps 741 mmHg 82%
    22:00 +8°C° 0 mm 1 mps 741 mmHg 81%
    23:00 +8°C° 0 mm 1 mps 741 mmHg 80%

    24 October, Tuesday

    Time Temperature Precipitation Wind Pressure Humidity
    00:00 +8°C° 0 mm 1 mps 741 mmHg 80%
    01:00 +8°C° 0 mm 1 mps 741 mmHg 79%
    02:00 +8°C° 0 mm 1 mps 741 mmHg 78%
    03:00 +8°C° 0 mm 1 mps 741 mmHg 78%
    04:00 +8°C° 0 mm 1 mps 741 mmHg 77%
    05:00 +8°C° 0 mm 1 mps 741 mmHg 76%
    06:00 +8°C° 0 mm 1 mps 741 mmHg 76%
    07:00 +8°C° 0 mm 1 mps 741 mmHg 75%
    08:00 +10°C° 0 mm 1 mps 742 mmHg 68%
    09:00 +12°C° 0 mm 1 mps 742 mmHg 60%
    10:00 +15°C° 0 mm 2 mps 742 mmHg 53%
    11:00 +15°C° 0 mm 2 mps 742 mmHg 53%
    12:00 +16°C° 0 mm 3 mps 742 mmHg 52%
    13:00 +15°C° 0 mm 4 mps 742 mmHg 52%
    14:00 +16°C° 0 mm 3 mps 742 mmHg 56%
    15:00 +14°C° 0 mm 3 mps 742 mmHg 60%
    16:00 +14°C° 0 mm 3 mps 742 mmHg 64%
    17:00 +12°C° 0 mm 3 mps 743 mmHg 68%
    18:00 +11°C° 0 mm 3 mps 743 mmHg 72%
    19:00 +10°C° 0 mm 3 mps 744 mmHg 77%
    20:00 +9°C° 0 mm 3 mps 744 mmHg 78%
    21:00 +9°C° 0 mm 3 mps 745 mmHg 80%
    22:00 +9°C° 0 mm 3 mps 745 mmHg 82%
    23:00 +8°C° 0 mm 3 mps 745 mmHg 84%

    25 October, Wednesday

    Time Temperature Precipitation Wind Pressure Humidity
    00:00 +8°C° 0 mm 3 mps 746 mmHg 86%
    01:00 +8°C° 0 mm 3 mps 746 mmHg 88%
    02:00 +7°C° 0 mm 3 mps 746 mmHg 88%
    03:00 +7°C° 0 mm 3 mps 746 mmHg 89%
    04:00 +7°C° 0 mm 3 mps 746 mmHg 90%
    05:00 +7°C° 0 mm 3 mps 747 mmHg 91%
    06:00 +7°C° 0 mm 2 mps 747 mmHg 91%
    07:00 +6°C° 0 mm 2 mps 747 mmHg 92%
    08:00 +8°C° 0 mm 3 mps 747 mmHg 83%
    09:00 +10°C° 0 mm 3 mps 748 mmHg 75%
    10:00 +12°C° 0 mm 3 mps 748 mmHg 67%
    11:00 +13°C° 0 mm 3 mps 748 mmHg 64%
    12:00 +14°C° 0 mm 4 mps 748 mmHg 60%
    13:00 +15°C° 0 mm 4 mps 748 mmHg 57%
    14:00 +14°C° 0 mm 3 mps 748 mmHg 61%
    15:00 +15°C° 0 mm 2 mps 748 mmHg 64%
    16:00 +14°C° 0 mm 2 mps 748 mmHg 68%
    17:00 +13°C° 0 mm 2 mps 748 mmHg 73%
    18:00 +10°C° 0 mm 2 mps 748 mmHg 78%
    19:00 +10°C° 0 mm 1 mps 749 mmHg 83%
    20:00 +9°C° 0 mm 1 mps 749 mmHg 84%
    21:00 +9°C° 0 mm 1 mps 749 mmHg 84%
    22:00 +9°C° 0 mm 1 mps 749 mmHg 85%
    23:00 +8°C° 0 mm 1 mps 749 mmHg 85%
    Show more